STARLINK-32277, 60376

Orbit data source: Space-Track

STARLINK-32277, 60376 is a payload satellite owned by SpaceX/Seattle (US) in LEO that was launched on Sun, 04 Aug 2024 UTC via an FALCON 9 launch vehicle from the Air Force Western Test Range (AFWTR). Payload-class satellites include a variety of spacecraft equipped with specific instruments for various scientific and technological missions. These include communications satellites like Starlink; space stations such as the ISS; scientific satellites like the Hubble; Earth observation satellites from companies like Planet Labs, Umbra, and HawkEye 360; GPS; miniature CubeSats for education and research; and military/defense satellites.

Loading next visibility...
Identifier
60376, 2024-138X
Orbit
LEO
Country
Flag of USUS
Related business
Manufacturer
SpaceX/Seattle
Mission
Operational Commercial Communications
Bus & Motor
STARLINK V2M, Unknown motor
Mass
730 kg wet, ~700 kg dry
Launch date (UTC)
2024-08-04 (1 year ago)
Launch vehicle
FALCON 9
Launch site
Air Force Western Test Range (AFWTR)
Object type
Payload
Rocket body
Debris
Shape & HBR
Box + 2 Pan, 17.7 m
Radar Cross Section
33.884 m², Large (>1 m²)

Expand to show TLE details & history
Last TLE update: 15 hours ago

TLE from 15 hours ago
0 STARLINK-32277
1 60376U 24138X   25291.29316814  .00009891  00000-0  34580-3 0  9993
2 60376  53.1591 251.1883 0001477  76.8026 283.3139 15.30184462 68821
Epoch: 2025-10-18T07:02Z
TLE epoch observation values (Epoch: 2025-10-18T07:02:09.727Z)
Latitude
-0.00005°
Longitude
118.62147°
Altitude
475.928 km
Speed
7.629 km/s
True Right ascension
16h 44m 45s
True Declination
0° 00' 00"
Sunlit
Object was in daylight at epoch
Visualization orbit readout
Latitude
Unknown
Longitude
Unknown
Altitude
Unknown
Speed
Unknown
Apparent Right ascension
Unknown
Apparent Declination
Unknown
Sunlit
N/A
Visualization observer readout
Local Sidereal Time
17:03:31
Azimuth
Unknown
Elevation
Unknown
Doppler factor
Unknown
Orbital elements
Apogee altitude
476.53 km
Perigee altitude
474.506 km
Semi-major axis
6,853.655 km
Eccentricity
0.00015
Inclination
53.1591°
RAAN
251.1883°
Arg. of periapsis
76.8026°
True anomaly
283.29743°
Mean anomaly
283.3139°
Eccentric anomaly
283.30566°
Mean motion
3.82525 °/min
Orbital period
94.11 mins
BSTAR
0.0003458
Loading maneuver chart data...
Computing Atmospheric mass density...
Loading historical data...
Loading historical data...
Loading historical data...
Loading historical data...
Loading historical data...
Loading historical data...
Loading historical data...

Documentation

Showing up to 5 results
|